User: anonymous
Location: Unspecified
(0.0000°N, 0.0000°E)
Time: 09:50:20
(UTC+00:00)
Language:

NAVSTAR 65 (USA 213) - Orbit

View from above orbital plane
View from above orbital plane
View from above satellite
View from above satellite

Ground track
Ground track

The orbit data is extracted from the following two-line orbital elements,

1 36585U 10022A   14212.11507037 -.00000058  00000-0  00000+0 0  6581
2 36585 055.9654 022.2938 0035353 038.8016 174.2290 02.00575592 30579
Epoch (UTC): 31 July 2014 02:45:42
Eccentricity: 0.0035353
inclination: 55.9654°
perigee height: 20087 km
apogee height: 20275 km
right ascension of ascending node: 22.2938°
argument of perigee: 38.8016°
revolutions per day: 2.00575592
mean anomaly at epoch: 174.2290°
orbit number at epoch: 3057

The dashed part of the orbit path shows where the satellite is in the earth's shadow,  

DLR